Lapse_Rate
8.0 8.5 8.7 8.8 8.9 8.9 9.2 9.3 9.2 9.3 9.3 8.9 9.2 9.2 9.1 9.1 9.1 8.8 8.7 8.4 8.4 8.4 8.0 7.5 7.1 7.1 7.0 7.0 6.8 6.6 6.4 6.3 6.2 6.3 6.2 6.0 6.2 5.8 5.7 5.7 5.8 5.7 5.6 5.3
8.3 8.7 8.9 8.8 9.0 9.2 9.2 9.3 9.1 9.2 9.3 9.2 9.1 9.0 9.1 9.2 9.2 9.2 8.7 8.5 8.4 8.4 8.0 7.5 7.3 7.3 7.1 7.0 7.0 6.8 6.7 6.9 6.8 6.6 6.7 6.5 6.3 6.0 6.1 5.7 5.8 5.9 5.9 5.7
8.4 8.7 9.1 9.0 9.1 9.3 9.4 9.4 9.4 9.2 9.2 9.2 8.9 8.7 8.9 9.1 9.0 9.1 8.7 8.6 8.3 8.2 7.9 7.0 6.8 7.4 6.7 6.7 6.8 6.5 6.7 6.9 7.0 6.8 6.9 6.9 6.9 6.9 6.5 6.1 6.1 6.2 5.6 5.8
8.7 8.7 9.1 9.2 9.2 9.4 9.4 9.4 9.4 9.2 9.4 9.4 9.1 9.0 8.9 9.1 8.7 8.9 8.9 8.7 8.7 8.0 7.6 7.6 7.3 7.5 7.1 6.9 7.0 6.8 6.9 7.1 6.9 7.4 7.4 7.3 7.1 7.3 7.5 7.1 6.5 6.2 6.0 5.5
8.3 8.8 9.0 9.2 9.2 9.5 9.3 9.3 9.3 9.3 9.5 9.3 9.1 8.7 9.2 9.1 8.6 8.6 8.7 8.6 9.0 8.8 8.0 7.7 7.6 7.5 7.4 7.1 7.2 7.0 6.9 6.8 6.8 7.2 7.3 7.2 7.3 6.9 6.7 6.7 6.4 6.4 6.4 6.2
8.0 8.9 9.0 9.3 9.4 9.5 9.4 9.3 9.2 9.2 9.5 9.4 8.6 8.6 8.9 8.7 8.4 8.3 8.1 8.4 8.7 8.8 8.3 8.0 7.5 7.6 7.7 7.5 7.3 7.1 6.8 6.5 6.5 6.6 7.0 6.7 6.7 6.6 6.0 5.9 5.8 5.9 6.3 6.3
8.3 9.0 9.1 9.1 9.2 9.4 9.3 9.2 9.3 9.4 9.6 9.5 8.5 8.4 9.0 8.6 8.3 8.2 8.1 8.1 8.4 8.5 8.1 8.0 7.7 7.7 7.6 7.6 7.5 7.1 6.9 6.7 6.9 6.6 6.0 6.6 6.3 6.0 6.1 6.6 6.5 6.0 6.3 6.4
8.7 9.1 8.9 9.2 9.4 9.3 9.2 9.2 9.2 8.8 9.4 9.4 8.3 8.8 8.7 8.7 8.4 8.3 7.9 8.3 8.1 8.0 8.1 8.1 7.9 7.9 7.9 7.7 7.4 7.2 7.1 6.9 6.9 6.2 6.2 6.0 6.1 6.3 6.2 6.7 6.8 6.5 6.3 6.7
8.7 8.7 9.3 9.4 9.1 9.1 9.3 8.9 8.7 8.6 8.3 8.5 8.4 8.8 9.1 9.0 8.7 8.4 8.1 8.1 7.8 8.2 8.1 7.9 7.9 8.4 7.7 7.6 7.5 7.4 7.3 7.2 6.9 6.8 6.5 6.5 6.2 6.2 6.5 6.4 6.6 6.0 6.1 6.5
8.6 9.2 9.3 8.9 9.1 9.2 9.2 9.3 9.0 8.9 8.9 9.0 8.4 8.5 9.1 9.1 8.7 8.4 8.1 8.0 7.8 7.7 7.6 7.5 7.8 8.1 7.9 7.3 7.3 7.3 7.2 7.0 6.9 6.7 6.3 5.8 5.8 5.9 6.2 6.3 6.1 6.1 6.2 6.3
8.4 9.1 9.0 8.8 8.9 9.2 9.2 9.2 9.1 9.0 8.7 9.4 9.4 9.3 9.1 9.2 8.9 8.4 8.1 8.0 7.9 7.9 7.7 7.6 7.4 7.6 7.7 7.7 7.7 7.4 7.1 6.8 6.4 6.3 6.0 5.5 5.4 5.5 5.6 5.9 6.1 6.2 6.2 6.2
8.8 9.1 8.8 8.6 9.0 9.1 9.2 9.2 9.2 9.3 8.3 8.6 8.4 9.2 9.1 9.1 9.0 8.4 8.1 7.8 7.8 7.7 7.7 7.5 7.5 7.8 7.9 7.8 7.6 7.2 6.8 6.4 6.1 5.5 5.3 5.2 5.2 5.3 5.5 5.7 6.2 6.5 6.5 6.4
9.0 8.8 8.8 8.7 8.8 8.9 8.9 9.0 9.0 9.0 9.1 8.7 9.1 9.1 9.0 9.0 8.8 8.5 8.1 7.9 7.8 7.8 7.7 7.8 8.0 8.3 8.2 7.9 7.3 6.8 6.3 6.1 5.7 5.3 5.1 5.0 5.0 5.1 5.4 5.7 5.8 6.0 6.4 6.4
9.1 9.0 9.1 9.4 9.2 9.1 8.9 8.7 8.8 9.0 8.9 8.8 8.8 9.1 9.1 8.9 8.7 8.4 8.1 8.0 7.7 7.8 7.9 7.8 8.0 8.1 7.9 7.3 6.9 6.5 5.9 5.7 5.4 5.3 5.1 5.1 5.1 5.3 5.1 5.2 5.6 5.5 5.6 5.6
9.0 8.9 9.0 9.1 9.1 9.1 8.8 8.8 8.7 8.5 8.4 8.4 8.6 8.6 8.6 8.5 8.3 8.2 8.4 8.1 7.9 7.4 7.9 7.7 7.7 7.4 7.1 7.0 6.6 6.1 5.6 5.2 5.0 5.4 5.4 6.0 6.0 5.7 5.2 5.3 5.4 5.5 5.5 5.3
9.0 8.9 9.0 8.7 8.7 8.5 8.7 8.5 8.4 8.2 8.1 8.0 8.0 8.0 8.2 7.8 7.7 7.9 8.1 7.8 7.8 7.7 8.0 7.8 7.3 7.4 7.2 6.7 6.2 5.8 5.4 5.3 5.3 5.3 5.2 5.2 5.4 5.8 5.6 5.4 5.4 5.5 5.3 5.1
8.8 9.1 8.8 8.1 8.4 8.5 8.5 8.3 8.2 8.1 7.8 7.7 7.5 7.7 7.7 7.6 7.6 7.8 7.9 8.0 7.9 7.8 7.6 7.6 7.2 7.2 6.7 6.2 5.9 5.7 5.5 5.3 5.1 5.1 5.0 4.9 5.0 5.0 5.3 5.6 5.7 5.7 5.4 5.2
9.1 9.2 8.8 8.3 8.3 8.6 8.4 8.3 8.0 7.6 7.5 7.4 7.3 7.2 7.2 7.4 7.3 7.3 7.4 7.5 7.4 7.3 7.4 7.2 7.0 6.6 6.4 6.0 5.8 5.6 5.2 5.3 5.6 5.7 5.6 5.4 5.1 5.0 5.0 4.9 5.0 5.1 5.6 5.6
9.1 9.0 8.7 8.3 8.1 8.0 8.3 8.3 7.9 7.4 7.3 7.3 7.2 7.0 6.9 7.0 6.8 6.9 6.9 7.0 7.0 7.0 6.9 6.6 6.6 6.5 6.3 6.1 6.0 5.8 5.7 5.7 5.7 5.6 5.3 5.1 5.1 5.1 5.0 4.7 4.6 4.5 4.3 4.6
8.9 8.9 8.9 8.6 8.1 8.5 8.4 8.1 7.8 7.2 6.9 7.1 7.0 6.7 6.5 6.5 6.6 6.6 6.6 6.6 6.6 6.5 6.5 6.6 6.4 6.2 6.1 5.9 5.6 5.6 5.6 5.6 5.6 5.4 5.2 5.0 4.9 4.9 4.9 4.6 4.6 4.7 4.6 4.4
8.7 8.8 8.8 8.5 8.2 8.2 8.2 7.9 7.4 6.5 7.1 6.9 6.8 6.6 6.4 6.3 6.3 6.2 6.2 6.2 6.4 6.5 6.4 6.2 6.2 5.9 5.6 5.4 5.4 5.6 5.8 5.7 5.4 5.2 5.3 5.2 5.1 5.0 4.7 4.4 4.4 4.6 4.7 4.9
8.9 8.8 8.7 8.6 8.3 8.1 8.0 7.7 7.4 7.3 6.9 6.8 6.7 6.5 6.2 6.2 6.2 6.1 6.0 6.0 5.9 5.8 5.8 5.8 5.6 5.4 5.4 5.6 5.8 5.7 5.3 5.0 5.0 5.1 5.1 5.2 5.1 5.1 4.9 4.9 4.9 4.8 4.6 4.8
8.4 8.6 8.8 8.5 8.3 8.1 7.9 7.6 7.5 7.1 6.8 6.8 6.5 6.4 6.3 6.2 6.1 6.0 6.1 6.0 6.1 6.3 6.2 6.0 5.7 5.6 5.6 5.5 5.4 5.2 5.2 5.4 5.3 5.3 5.4 5.4 5.3 5.1 5.0 5.0 4.9 4.7 4.6 4.7
8.7 8.6 8.3 8.2 7.9 7.8 7.5 7.4 7.2 6.9 6.9 6.7 6.5 6.4 6.3 6.2 6.2 6.2 6.2 6.3 6.3 6.1 5.9 5.7 5.6 5.4 5.4 5.4 5.4 5.4 5.5 5.4 5.3 5.2 5.0 4.7 4.7 4.7 4.8 4.9 4.8 4.7 4.6 4.5
8.4 8.1 7.9 7.8 7.6 7.6 7.5 7.3 7.1 7.0 6.8 6.5 6.4 6.4 6.2 6.1 6.2 6.1 6.1 6.0 5.9 5.8 5.6 5.5 5.5 5.5 5.6 5.5 5.5 5.4 5.3 5.3 5.3 5.0 4.4 4.3 4.4 4.2 4.2 4.3 4.0 3.7 3.7 4.3
8.1 8.1 7.9 7.8 7.7 7.6 7.4 7.2 7.1 6.8 6.5 6.3 6.3 6.2 6.1 5.9 5.9 5.9 5.9 5.8 5.6 5.4 5.3 5.4 5.5 5.5 5.4 5.4 5.4 5.3 5.2 5.2 5.1 4.1 3.9 4.1 3.7 3.6 3.6 3.8 3.7 3.2 4.0 4.1
Wind_Speed
2 3 2 3 1 3 3 3 6 6 4 8 10 9 2 8 12 12 13 14 14 16 6 5 11 13 14 14 14 15 14 14 10 8 8 8 9 7 7 10 13 13 12 14
4 5 1 3 3 6 5 4 0 2 5 6 2 5 4 1 9 15 14 14 15 10 8 9 4 11 15 16 16 15 15 14 12 9 5 4 3 3 4 5 8 11 13 14
10 5 4 2 3 5 4 2 1 3 5 6 1 2 4 1 2 8 11 13 13 8 9 13 17 10 15 15 16 14 14 13 11 11 6 4 3 3 5 4 4 6 10 13
5 0 1 2 4 4 1 3 2 4 4 1 3 4 4 4 7 2 7 11 13 10 15 16 16 5 13 14 10 12 13 13 12 11 8 10 8 8 6 5 4 5 10 11
6 5 2 6 3 3 3 3 2 2 3 4 3 3 2 3 5 5 6 6 5 6 16 18 14 9 11 10 11 12 11 11 10 12 12 8 11 9 7 4 5 6 6 10
5 1 2 2 3 2 7 3 4 2 1 2 2 4 2 0 1 3 4 5 5 10 12 11 9 8 7 8 11 7 9 9 10 11 13 11 10 10 7 7 6 5 5 5
4 10 4 3 6 5 3 3 3 2 3 2 0 3 3 1 3 3 5 1 5 8 12 11 10 8 8 8 8 7 8 8 9 11 9 9 10 11 12 10 5 5 3 5
9 10 7 6 3 2 4 4 4 4 4 1 2 3 1 1 1 1 1 2 4 8 10 10 9 8 6 6 4 4 6 7 7 8 7 6 8 7 8 8 5 5 4 7
8 5 3 3 2 2 5 4 2 5 1 2 0 3 8 6 4 2 3 5 4 4 4 11 3 7 9 7 4 5 5 5 6 5 4 6 5 7 7 9 8 5 4 6
5 2 3 4 2 9 3 8 3 1 4 3 2 4 4 4 7 5 5 7 6 5 8 6 3 6 10 9 4 2 1 4 5 5 6 6 5 6 8 9 9 8 5 7
5 2 4 3 3 4 5 4 5 4 2 2 3 2 1 7 8 5 6 8 7 4 4 3 7 10 12 9 4 2 0 5 8 6 5 6 7 8 8 7 8 9 8 8
5 2 2 3 2 1 1 3 4 3 4 1 2 2 4 7 5 2 5 11 6 5 4 3 6 10 9 9 8 7 4 4 6 6 4 5 5 4 4 5 5 6 7 5
10 3 4 5 3 3 2 3 3 6 2 5 3 1 4 5 5 6 6 10 10 6 5 5 9 11 11 11 9 9 8 8 8 8 6 5 6 5 5 4 2 2 1 3
8 3 2 7 2 3 5 4 2 1 3 3 6 2 4 8 7 3 8 11 11 10 10 10 12 12 11 11 12 10 9 9 9 9 7 7 7 8 6 8 6 5 5 5
4 4 3 5 4 4 4 4 3 3 1 5 4 3 5 6 6 8 11 13 14 12 14 13 12 11 10 10 11 11 11 11 11 8 8 9 10 9 10 9 9 8 7 6
1 4 7 5 4 5 5 4 4 4 2 2 2 3 4 8 11 11 11 11 13 11 12 12 11 11 11 10 10 11 11 12 13 12 12 11 9 9 10 11 11 11 11 9
4 8 4 4 3 3 3 3 2 1 1 2 5 5 9 10 11 10 9 11 11 10 10 10 10 11 11 11 11 12 13 12 12 12 12 12 12 12 12 11 10 11 11 11
8 6 2 4 4 4 4 2 5 3 0 4 8 11 8 9 9 9 8 8 8 8 10 10 9 9 10 10 10 11 12 12 13 12 12 12 12 13 13 13 13 13 11 12
5 5 4 4 2 2 3 5 6 4 2 6 12 12 11 11 8 7 6 7 7 7 6 7 8 9 9 10 12 12 12 12 13 13 14 14 14 14 15 15 15 13 12 12
9 8 4 4 4 4 3 8 6 3 6 13 12 14 11 6 4 3 4 6 7 8 8 9 9 9 10 11 11 11 12 12 13 15 15 15 16 16 16 16 16 14 12 11
2 3 3 4 2 1 4 7 8 5 2 15 14 9 8 4 3 7 5 6 6 7 9 9 9 8 9 10 9 10 12 11 13 14 16 16 14 14 17 17 15 14 14 13
3 4 3 3 2 4 8 7 5 3 7 12 10 7 7 9 8 5 4 3 5 6 8 7 7 8 9 10 11 11 11 12 13 12 12 12 13 11 12 15 14 15 14 13
2 1 2 3 1 1 2 2 2 5 10 7 10 8 9 8 5 4 4 5 6 8 8 9 9 10 10 10 10 11 11 11 12 14 15 15 15 14 13 12 12 11 13 10
2 2 2 4 2 2 5 6 6 9 11 10 11 10 7 8 5 4 4 6 6 7 8 9 10 10 10 11 10 10 11 14 15 14 14 12 12 12 12 9 9 9 8 9
1 8 7 2 2 4 4 6 11 13 13 13 11 10 9 7 6 4 5 5 5 7 8 9 9 10 11 11 11 12 13 12 12 12 12 11 10 11 11 9 8 9 12 8
5 6 5 2 11 2 9 12 14 14 13 11 12 10 8 7 6 6 6 6 6 6 7 8 9 10 11 11 11 13 11 12 12 11 10 9 9 10 9 8 8 11 14 16
Wind_Direction
54 222 245 340 315 329 286 261 265 265 221 193 228 272 337 202 205 206 208 215 214 215 193 195 226 226 228 227 220 215 214 212 204 204 202 223 227 229 231 220 209 207 203 213
177 234 114 168 242 248 255 255 273 36 120 208 156 247 308 247 229 217 213 225 225 211 162 183 355 249 221 226 224 216 215 209 207 216 211 200 179 209 224 213 223 215 211 210
210 139 209 186 226 276 201 257 135 119 117 65 100 239 299 30 335 241 232 242 251 222 149 66 334 280 268 229 224 216 216 212 213 209 211 205 196 227 222 206 225 209 216 218
217 207 175 28 275 253 148 248 97 141 189 149 316 294 272 357 341 228 255 252 244 222 143 153 205 226 242 245 225 211 207 206 209 198 210 222 234 235 227 225 197 196 203 223
167 167 229 329 213 212 75 51 26 64 100 171 31 247 291 18 52 31 3 332 257 187 157 184 204 234 237 224 217 214 200 202 205 204 212 209 234 252 252 253 252 237 206 217
193 160 252 239 227 113 141 100 72 75 117 166 39 283 232 194 56 301 19 23 89 125 129 149 162 185 199 206 217 209 211 207 200 210 220 220 239 249 249 243 243 228 227 212
220 253 261 212 219 102 150 173 264 250 206 16 6 237 329 323 27 298 332 359 143 116 118 125 135 160 180 166 180 183 207 222 207 216 222 222 240 245 245 242 238 248 226 226
191 218 203 186 230 190 183 243 238 254 208 38 153 234 68 349 332 300 339 87 156 139 128 125 132 139 158 154 138 177 199 232 212 218 224 229 252 252 246 230 236 252 248 253
183 228 199 45 126 240 154 200 47 119 87 243 80 252 262 245 202 217 95 109 136 123 89 65 33 100 108 116 181 203 211 234 239 238 238 269 249 225 231 241 243 266 270 266
172 180 78 112 99 61 236 128 164 168 181 225 193 267 263 251 221 193 147 127 90 66 52 101 154 75 91 93 109 185 183 272 266 263 279 286 267 248 252 253 268 295 286 271
161 247 118 159 24 155 150 172 68 106 338 251 250 220 207 280 267 219 123 115 98 70 56 79 94 83 70 74 87 104 188 294 299 289 290 287 283 294 298 296 302 297 290 266
170 108 77 64 39 191 0 110 176 223 179 119 301 234 16 303 285 229 106 119 109 107 80 57 45 50 56 59 50 37 28 345 307 286 272 272 283 289 297 293 290 292 284 256
175 202 151 134 178 170 91 77 95 100 117 181 232 235 19 34 95 81 118 117 119 103 71 56 42 35 18 15 14 11 5 349 333 324 339 334 311 302 293 286 172 168 192 192
140 124 210 206 152 119 147 120 131 289 212 157 240 273 34 22 30 64 81 101 111 109 80 57 53 42 29 21 15 1 354 342 320 310 315 300 289 285 268 285 275 186 202 203
189 148 128 78 116 100 105 135 166 229 332 251 6 220 26 19 45 72 89 94 92 78 72 66 60 52 41 29 16 8 1 354 345 320 304 292 294 291 292 288 283 281 272 241
95 124 131 68 77 113 111 76 99 74 112 277 194 116 59 92 99 82 74 80 75 66 59 51 42 32 28 17 5 356 346 341 343 346 346 339 317 293 286 287 288 292 283 263
128 145 157 137 209 181 167 16 331 134 201 261 206 136 141 118 96 80 80 73 70 58 46 34 26 20 9 356 347 341 337 334 333 336 333 335 336 331 327 316 291 272 272 274
131 104 66 124 186 209 34 321 231 169 197 221 134 145 135 116 107 89 65 72 60 40 29 21 11 2 358 347 345 341 342 342 343 341 338 335 328 321 319 318 313 310 298 273
88 117 100 142 118 0 214 202 187 208 180 188 149 142 142 141 135 94 72 62 56 39 22 8 2 357 352 354 352 346 341 344 344 340 333 330 328 320 314 305 300 298 296 293
70 81 110 156 174 214 106 177 188 169 256 177 168 159 162 181 234 111 94 45 33 20 10 358 355 348 351 348 340 337 337 336 341 336 333 326 321 314 308 308 303 297 290 287
109 49 125 149 184 244 155 144 151 205 2 164 172 169 162 188 42 106 80 42 20 6 358 353 349 343 338 345 349 341 345 359 334 332 325 321 318 315 310 309 300 297 294 289
162 137 141 128 180 236 154 137 210 74 130 145 144 134 118 115 123 122 94 46 16 1 353 357 348 351 357 3 356 356 343 333 324 316 308 303 305 307 309 312 310 302 285 286
171 329 172 232 91 57 161 30 90 125 136 126 125 123 132 132 115 78 46 26 12 8 358 2 1 357 1 357 357 342 330 322 320 320 320 317 309 305 304 302 302 303 306 283
122 187 117 169 151 133 141 115 110 128 117 119 120 121 113 110 94 70 34 20 17 10 9 4 359 356 350 354 345 337 328 325 322 319 312 307 302 299 295 291 293 297 299 304
93 154 135 111 159 138 156 137 127 116 115 110 102 103 108 113 100 81 52 47 34 25 17 11 3 356 350 346 344 337 336 327 319 316 310 313 312 307 298 289 285 285 286 278
194 159 186 201 175 147 161 148 140 131 127 122 122 116 105 108 108 104 91 75 58 37 18 11 5 355 348 341 338 343 336 329 322 326 332 329 320 314 302 296 296 267 262 276